GSAT0221 (PRN E15)

Last updated on June 16, 2019, 3:38 a.m. UTC

1 43564U 18060A   19166.38388239 -.00000091  00000-0  00000+0 0  9994
2 43564  56.5601  51.1498 0003446 292.6067  67.4001  1.70475602  5559
UTC
Height (km)
Latitude
Longitude
Inclination
Orbital Period
UTC large
Height (km)
Speed (km/s)
/
Latitude / Longitude
Inclination (degrees)
Orbital Period (minutes)
Azimuth
Elevation
Range (km)
Doppler Factor
iOS Compass Heading
iOS Angle

Next 30 passes for location: Hong Kong

Rise time Rise Azimuth (degrees) Set time Set Azimuth (degrees) Duration Max altitude (degrees)

No matching passes for this satellites